Home   Weather   Kralendijk   Past weeks
Flag for Caribbean Netherlands

Past Weather in Kralendijk, Bonaire, Caribbean Netherlands — Yesterday and Last 2 Weeks

Now
81 °F

Passing clouds.


Feels Like: 85 °F
Forecast: 87 / 81 °F
Wind: 15 mph from East

Location: Flamingo Airport - Bonaire

Current Time: May 19, 2019 at 2:43:07 am

Latest Report: May 19, 2019 at 1:55 am


Visibility: N/A

Pressure: 29.89 "Hg

Humidity: 79%

Dew Point: 73 °F

Location of KralendijkLocation

Past Weather in Kralendijk — Graph

°F

Kralendijk Temperature Yesterday

Maximum temperature yesterday: 88 °F (at 11:55 am)
Minimum temperature yesterday: 81 °F (at 12:55 am)
Average temperature yesterday: 83 °F

High & Low Weather Summary for the Past Weeks

 TemperatureHumidityPressure
High90 °F (May 4, 10:55 am)89% (May 8, 3:55 am)29.98 "Hg (May 8, 3:55 am)
Low79 °F (May 4, 2:55 am)59% (May 4, 10:55 am)29.74 "Hg (May 15, 6:55 pm)
Average83 °F75%29.89 "Hg
* Reported May 4 12:55 am — May 19 12:55 am, Kralendijk. Weather by CustomWeather, © 2019

Note: Actual official high and low records may vary slightly from our data, if they occured in-between our weather recording intervals... More about our weather records

Advertising

Kralendijk Weather History for the Previous 24 Hours

Scroll right to see more
 ConditionsComfort  
Time TempWeatherWind HumidityBarometerVisibility
12:55 am
Sun, May 19
81 °FPassing clouds.17 mph79%29.89 "HgN/A
11:55 pm
Sat, May 18
81 °FPassing clouds.18 mph79%29.89 "HgN/A
10:55 pm81 °FPassing clouds.18 mph79%29.89 "HgN/A
9:55 pm81 °FPassing clouds.16 mph79%29.86 "HgN/A
8:55 pm81 °FPassing clouds.16 mph79%29.86 "HgN/A
7:55 pm81 °FPassing clouds.18 mph79%29.83 "HgN/A
6:55 pm82 °FPassing clouds.18 mph74%29.80 "HgN/A
5:55 pm84 °FPassing clouds.23 mph66%29.77 "HgN/A
4:55 pm86 °FPassing clouds.21 mph62%29.80 "HgN/A
3:55 pm86 °FPassing clouds.17 mph62%29.80 "HgN/A
2:55 pm88 °FScattered clouds.20 mph59%29.83 "HgN/A
1:55 pm88 °FWarm.18 mph62%29.86 "HgN/A
12:55 pm86 °FScattered clouds.20 mph66%29.89 "HgN/A
11:55 am88 °FPartly sunny.21 mph62%29.89 "HgN/A
10:55 am86 °FPartly sunny.23 mph66%29.92 "HgN/A
9:55 am86 °FScattered clouds.21 mph66%29.92 "HgN/A
8:55 am86 °FBroken clouds.20 mph66%29.89 "HgN/A
7:55 am82 °FBroken clouds.20 mph74%29.89 "HgN/A
6:55 am81 °FBroken clouds.16 mph79%29.89 "HgN/A
5:55 am81 °FPassing clouds.16 mph79%29.86 "HgN/A
4:55 am81 °FPassing clouds.18 mph79%29.86 "HgN/A
3:55 am81 °FPartly cloudy.15 mph84%29.83 "HgN/A
2:55 am81 °FPassing clouds.15 mph79%29.86 "HgN/A
Weather by CustomWeather, © 2019

See weather overview